| time (UTC) | temp F | wind direction | speed MPH | gust MPH | rain 1hr in | rain 24hr in | rain mn in | humidity % | barometer mb |
| 20260506133015 | 70 | 0.0 | 2.0 | 0.00 | 0.00 | 0.00 | 100 | 1011.6 | |
| 20260506132015 | 70 | 157 | 3.0 | 9.0 | 0.00 | 0.00 | 0.00 | 100 | 1010.7 |
| 20260506131116 | 70 | 157 | 2.0 | 6.0 | 0.00 | 0.00 | 0.00 | 100 | 1010.1 |
| 20260506130015 | 70 | 135 | 3.0 | 5.0 | 0.00 | 0.00 | 0.00 | 100 | 1010.3 |
| 20260506125015 | 70 | 135 | 2.0 | 6.0 | 0.00 | 0.00 | 0.00 | 100 | 1010.5 |
| 20260506124015 | 70 | 157 | 1.0 | 4.0 | 0.00 | 0.00 | 0.00 | 100 | 1010.4 |
| 20260506122015 | 70 | 135 | 2.0 | 5.0 | 0.00 | 0.00 | 0.00 | 100 | 1010.2 |
| 20260506120015 | 70 | 0.0 | 2.0 | 0.00 | 0.00 | 0.00 | 100 | 1010.5 | |
| 20260506115015 | 70 | 157 | 1.0 | 5.0 | 0.00 | 0.00 | 0.00 | 100 | 1010.5 |
| 20260506114015 | 70 | 157 | 1.0 | 5.0 | 0.00 | 0.00 | 0.00 | 100 | 1010.5 |
| 20260506113016 | 70 | 180 | 3.0 | 6.0 | 0.00 | 0.00 | 0.00 | 100 | 1010.6 |
| 20260506112015 | 70 | 180 | 5.0 | 10.0 | 0.00 | 0.00 | 0.00 | 100 | 1010.4 |
| 20260506111015 | 70 | 180 | 5.0 | 11.0 | 0.00 | 0.00 | 0.00 | 100 | 1010.5 |
| 20260506110115 | 70 | 180 | 5.0 | 11.0 | 0.00 | 0.00 | 0.00 | 100 | 1010.5 |
| 20260506105015 | 70 | 180 | 7.0 | 13.0 | 0.00 | 0.00 | 0.00 | 100 | 1010.6 |
| 20260506104016 | 70 | 180 | 5.0 | 11.0 | 0.00 | 0.00 | 0.00 | 100 | 1010.6 |
| 20260506103015 | 70 | 180 | 6.0 | 12.0 | 0.00 | 0.00 | 0.00 | 100 | 1010.8 |
| 20260506102015 | 70 | 180 | 7.0 | 12.0 | 0.00 | 0.00 | 0.00 | 99 | 1010.5 |
| 20260506101015 | 70 | 180 | 8.0 | 14.0 | 0.00 | 0.00 | 0.00 | 99 | 1010.7 |
| 20260506100015 | 70 | 180 | 7.0 | 13.0 | 0.00 | 0.00 | 0.00 | 99 | 1010.5 |
| 20260506095116 | 70 | 180 | 9.0 | 16.0 | 0.00 | 0.00 | 0.00 | 99 | 1010.5 |
| 20260506094016 | 70 | 180 | 9.0 | 14.0 | 0.00 | 0.00 | 0.00 | 99 | 1010.4 |
| 20260506093116 | 70 | 180 | 6.0 | 10.0 | 0.00 | 0.00 | 0.00 | 99 | 1010.3 |
| 20260506092016 | 71 | 157 | 7.0 | 13.0 | 0.00 | 0.00 | 0.00 | 99 | 1010.4 |
| 20260506091015 | 71 | 180 | 7.0 | 15.0 | 0.00 | 0.00 | 0.00 | 98 | 1010.5 |
| 20260506090015 | 71 | 180 | 7.0 | 17.0 | 0.00 | 0.00 | 0.00 | 98 | 1010.5 |
| 20260506085016 | 71 | 180 | 9.0 | 15.0 | 0.00 | 0.00 | 0.00 | 98 | 1010.4 |
| 20260506084116 | 71 | 180 | 5.0 | 8.0 | 0.00 | 0.00 | 0.00 | 98 | 1010.4 |
| 20260506083015 | 71 | 180 | 7.0 | 12.0 | 0.00 | 0.00 | 0.00 | 98 | 1010.3 |
| 20260506082015 | 71 | 180 | 7.0 | 13.0 | 0.00 | 0.00 | 0.00 | 97 | 1010.3 |
| 20260506081016 | 71 | 157 | 7.0 | 14.0 | 0.00 | 0.00 | 0.00 | 97 | 1010.3 |
| 20260506073015 | 72 | 180 | 9.0 | 16.0 | 0.00 | 0.00 | 0.00 | 97 | 1010.4 |
| 20260506072016 | 72 | 180 | 8.0 | 16.0 | 0.00 | 0.00 | 0.00 | 97 | 1010.3 |
| 20260506071015 | 72 | 180 | 9.0 | 15.0 | 0.00 | 0.00 | 0.00 | 97 | 1010.3 |
| 20260506062015 | 72 | 180 | 7.0 | 12.0 | 0.00 | 0.00 | 0.00 | 96 | 1010.5 |
| 20260506061116 | 72 | 157 | 6.0 | 12.0 | 0.00 | 0.00 | 0.00 | 96 | 1010.6 |
| 20260506060116 | 71 | 157 | 7.0 | 12.0 | 0.00 | 0.00 | 0.00 | 96 | 1010.5 |
| 20260506051016 | 71 | 157 | 4.0 | 7.0 | 0.00 | 0.00 | 0.00 | 92 | 1010.2 |
| 20260506045015 | 72 | 157 | 3.0 | 6.0 | 0.00 | 0.00 | 0.00 | 92 | 1010.2 |
| 20260506043115 | 71 | 157 | 3.0 | 6.0 | 0.00 | 0.00 | 0.00 | 92 | 1010.2 |
| 20260506042015 | 71 | 157 | 2.0 | 4.0 | 0.00 | 0.00 | 0.00 | 91 | |
| 20260506041015 | 72 | 157 | 2.0 | 4.0 | 0.00 | 0.00 | 0.00 | 90 | |
| 20260506040015 | 72 | 157 | 1.0 | 4.0 | 0.00 | 0.00 | 0.00 | 90 | |
| 20260506034015 | 72 | 157 | 3.0 | 6.0 | 0.00 | 0.00 | 0.00 | 90 | 1009.7 |
| 20260506033015 | 72 | 157 | 3.0 | 5.0 | 0.00 | 0.00 | 0.00 | 90 | 1009.5 |
| 20260506032015 | 73 | 157 | 2.0 | 4.0 | 0.00 | 0.00 | 0.00 | 88 | 1009.5 |
| 20260506031015 | 73 | 180 | 3.0 | 5.0 | 0.00 | 0.00 | 0.00 | 89 | 1009.5 |
| 20260506030015 | 73 | 157 | 3.0 | 6.0 | 0.00 | 0.00 | 0.00 | 88 | 1009.1 |
| 20260506025015 | 73 | 157 | 3.0 | 6.0 | 0.00 | 0.00 | 0.00 | 87 | 1009.2 |
| 20260506024015 | 73 | 157 | 3.0 | 5.0 | 0.00 | 0.00 | 0.00 | 86 | 1008.9 |
| 20260506022015 | 74 | 157 | 3.0 | 5.0 | 0.00 | 0.00 | 0.00 | 85 | 1008.6 |
| 20260506021015 | 74 | 157 | 2.0 | 4.0 | 0.00 | 0.00 | 0.00 | 85 | 1008.5 |
| 20260506020015 | 75 | 157 | 2.0 | 4.0 | 0.00 | 0.00 | 0.00 | 83 | 1008.5 |
| 20260506015015 | 75 | 157 | 3.0 | 4.0 | 0.00 | 0.00 | 0.00 | 82 | 1008.3 |
| 20260506014016 | 76 | 180 | 3.0 | 6.0 | 0.00 | 0.00 | 0.00 | 81 | 1008.1 |
| 20260506013016 | 76 | 157 | 3.0 | 5.0 | 0.00 | 0.00 | 0.00 | 80 | 1007.9 |
| 20260506012116 | 77 | 180 | 4.0 | 6.0 | 0.00 | 0.00 | 0.00 | 79 | 1007.8 |
| 20260506011015 | 77 | 180 | 4.0 | 6.0 | 0.00 | 0.00 | 0.00 | 79 | 1007.8 |
| 20260506010015 | 78 | 180 | 5.0 | 7.0 | 0.00 | 0.00 | 0.00 | 78 | 1007.6 |
| 20260506005015 | 78 | 157 | 4.0 | 8.0 | 0.00 | 0.00 | 0.00 | 77 | 1007.7 |
| 20260506004015 | 79 | 180 | 5.0 | 10.0 | 0.00 | 0.00 | 0.00 | 77 | 1007.8 |
| 20260506003015 | 80 | 180 | 6.0 | 11.0 | 0.00 | 0.00 | 0.00 | 75 | 1007.8 |
| 20260506002116 | 80 | 157 | 5.0 | 10.0 | 0.00 | 0.00 | 0.00 | 74 | 1008.1 |
| 20260506001016 | 81 | 180 | 6.0 | 12.0 | 0.00 | 0.00 | 0.00 | 73 | 1007.8 |
| 20260505235016 | 81 | 180 | 5.0 | 9.0 | 0.00 | 0.00 | 0.00 | 72 | 1008.0 |
| 20260505234015 | 81 | 180 | 6.0 | 11.0 | 0.00 | 0.00 | 0.00 | 72 | 1007.8 |
| 20260505233016 | 82 | 180 | 7.0 | 12.0 | 0.00 | 0.00 | 0.00 | 72 | 1007.9 |
| 20260505231015 | 82 | 180 | 6.0 | 13.0 | 0.00 | 0.00 | 0.00 | 72 | 1007.9 |
| 20260505230016 | 82 | 157 | 7.0 | 14.0 | 0.00 | 0.00 | 0.00 | 71 | 1007.7 |
| 20260505225016 | 82 | 157 | 8.0 | 13.0 | 0.00 | 0.00 | 0.00 | 72 | 1007.8 |
| 20260505224021 | 82 | 157 | 6.0 | 12.0 | 0.00 | 0.00 | 0.00 | 71 | 1007.8 |
| 20260505223116 | 83 | 180 | 8.0 | 14.0 | 0.00 | 0.00 | 0.00 | 71 | 1007.9 |
| 20260505222016 | 83 | 180 | 9.0 | 14.0 | 0.00 | 0.00 | 0.00 | 71 | 1007.8 |
| 20260505221016 | 83 | 180 | 5.0 | 11.0 | 0.00 | 0.00 | 0.00 | 70 | 1007.9 |
| 20260505220015 | 83 | 157 | 6.0 | 11.0 | 0.00 | 0.00 | 0.00 | 69 | 1008.0 |
| 20260505215016 | 83 | 157 | 6.0 | 12.0 | 0.00 | 0.00 | 0.00 | 70 | 1008.1 |
| 20260505214016 | 83 | 180 | 6.0 | 11.0 | 0.00 | 0.00 | 0.00 | 69 | 1008.3 |
| 20260505213016 | 83 | 180 | 5.0 | 11.0 | 0.00 | 0.00 | 0.00 | 69 | 1008.3 |
| 20260505212016 | 84 | 180 | 8.0 | 18.0 | 0.00 | 0.00 | 0.00 | 69 | 1008.5 |
| 20260505210016 | 84 | 180 | 8.0 | 14.0 | 0.00 | 0.00 | 0.00 | 68 | 1008.7 |
| 20260505205016 | 85 | 202 | 8.0 | 14.0 | 0.00 | 0.00 | 0.00 | 67 | 1009.1 |
| 20260505204016 | 85 | 202 | 6.0 | 11.0 | 0.00 | 0.00 | 0.00 | 65 | 1009.1 |
| 20260505203016 | 86 | 202 | 4.0 | 8.0 | 0.00 | 0.00 | 0.00 | 62 | 1009.4 |
| 20260505202016 | 86 | 202 | 5.0 | 10.0 | 0.00 | 0.00 | 0.00 | 63 | 1009.2 |
| 20260505201116 | 85 | 225 | 6.0 | 12.0 | 0.00 | 0.00 | 0.00 | 62 | 1009.4 |
| 20260505200016 | 85 | 225 | 9.0 | 15.0 | 0.00 | 0.00 | 0.00 | 65 | 1009.3 |
| 20260505195015 | 85 | 225 | 9.0 | 15.0 | 0.00 | 0.00 | 0.00 | 65 | 1009.4 |
| 20260505194015 | 84 | 225 | 7.0 | 12.0 | 0.00 | 0.00 | 0.00 | 66 | 1009.6 |
| 20260505193015 | 83 | 202 | 6.0 | 12.0 | 0.00 | 0.00 | 0.00 | 68 | 1009.7 |
| 20260505192016 | 83 | 202 | 6.0 | 11.0 | 0.00 | 0.00 | 0.00 | 71 | 1009.7 |
| 20260505191016 | 83 | 202 | 6.0 | 13.0 | 0.00 | 0.00 | 0.00 | 71 | 1009.6 |
| 20260505190016 | 82 | 202 | 6.0 | 13.0 | 0.00 | 0.00 | 0.00 | 72 | 1009.7 |
| 20260505185156 | 82 | 180 | 7.0 | 14.0 | 0.00 | 0.00 | 0.00 | 71 | 1009.9 |
| 20260505184116 | 82 | 225 | 6.0 | 13.0 | 0.00 | 0.00 | 0.00 | 73 | 1010.2 |
| 20260505183017 | 81 | 202 | 8.0 | 14.0 | 0.00 | 0.00 | 0.00 | 71 | 1010.5 |
| 20260505182016 | 81 | 202 | 6.0 | 11.0 | 0.00 | 0.00 | 0.00 | 71 | 1010.6 |
| 20260505181016 | 80 | 247 | 7.0 | 13.0 | 0.00 | 0.00 | 0.00 | 75 | 1010.6 |
| 20260505180016 | 80 | 225 | 6.0 | 13.0 | 0.00 | 0.00 | 0.00 | 77 | 1010.8 |
| 20260505175117 | 79 | 225 | 7.0 | 12.0 | 0.00 | 0.00 | 0.00 | 76 | 1010.7 |
| 20260505174016 | 78 | 202 | 5.0 | 11.0 | 0.00 | 0.00 | 0.00 | 79 | 1010.7 |
| 20260505173016 | 77 | 225 | 8.0 | 16.0 | 0.00 | 0.00 | 0.00 | 78 | 1010.9 |
| 20260505172017 | 77 | 202 | 9.0 | 14.0 | 0.00 | 0.00 | 0.00 | 78 | 1010.8 |
| 20260505171117 | 76 | 225 | 8.0 | 14.0 | 0.00 | 0.00 | 0.00 | 82 | 1011.0 |
| 20260505170016 | 76 | 202 | 12.0 | 16.0 | 0.00 | 0.00 | 0.00 | 79 | 1010.9 |
| 20260505165016 | 76 | 225 | 10.0 | 14.0 | 0.00 | 0.00 | 0.00 | 82 | 1010.9 |
| 20260505164016 | 75 | 225 | 8.0 | 14.0 | 0.00 | 0.00 | 0.00 | 82 | 1010.9 |
| 20260505163016 | 75 | 202 | 8.0 | 13.0 | 0.00 | 0.00 | 0.00 | 83 | 1010.9 |
| 20260505162016 | 0 | 202 | 9.0 | 14.0 | 0.00 | 0.00 | 0.00 | ||
| 20260505161016 | 0 | 202 | 8.0 | 15.0 | 0.00 | 0.00 | 0.00 | ||
| 20260505152016 | 69 | 225 | 7.0 | 14.0 | 0.00 | 0.00 | 0.00 | 93 | 1010.3 |
| 20260505151016 | 69 | 202 | 10.0 | 17.0 | 0.00 | 0.00 | 0.00 | 93 | 1010.2 |
| 20260505150116 | 68 | 0.0 | 0.0 | 0.00 | 0.00 | 0.00 | 94 | 1010.1 |